Showing default

OPS 5712 (P/L 160), 2826

Orbit data source: Space-Track

OPS 5712 (P/L 160), 2826 is a payload satellite owned by NRL (US) in LEO that was launched on Wed, 31 May 1967 UTC via a THOR SLV-2 AGENA D launch vehicle from the Air Force Western Test Range (AFWTR). Payload-class satellites include a variety of spacecraft equipped with specific instruments for various scientific and technological missions. These include communications satellites like Starlink; space stations such as the ISS; scientific satellites like the Hubble; Earth observation satellites from companies like Planet Labs, Umbra, and HawkEye 360; GPS; miniature CubeSats for education and research; and military/defense satellites.

Loading next visibility...
Identifier
2826, 1967-053A
Orbit
LEO
Country
Flag of USUS
Related business
Manufacturer
NRL
Mission
Operational spacecraft
Bus & Motor
NRL 14"?, Unknown motor
Mass
5 kg wet, 5 kg dry
Launch date (UTC)
1967-05-31 (58 years ago)
Launch vehicle
THOR SLV-2 AGENA D
Launch site
Air Force Western Test Range (AFWTR)
Object type
Payload
Rocket body
Debris
Shape & HBR
Unknown
Radar Cross Section
Medium (>0.1 m² and <1 m²)

Expand to show TLE details & history
Last TLE update: 13 hours ago

TLE from 13 hours ago
0 OPS 5712 (P/L 160)
1 02826U 67053A   25286.96515264  .00011679  00000-0  18392-2 0  9999
2 02826  69.9183 279.6757 0004757 321.3387  38.7417 14.72636603 29918
Epoch: 2025-10-13T23:09Z
TLE epoch observation values (Epoch: 2025-10-13T23:09:49.188Z)
Latitude
-0°
Longitude
-90.53962°
Altitude
652.445 km
Speed
7.533 km/s
True Right ascension
18h 38m 42s
True Declination
0° 00' 00"
Sunlit
Object was in daylight at epoch
Visualization orbit readout
Latitude
Unknown
Longitude
Unknown
Altitude
Unknown
Speed
Unknown
Apparent Right ascension
Unknown
Apparent Declination
Unknown
Sunlit
N/A
Visualization observer readout
Local Sidereal Time
07:05:26
Azimuth
Unknown
Elevation
Unknown
Doppler factor
Unknown
Orbital elements
Apogee altitude
653.988 km
Perigee altitude
647.3 km
Semi-major axis
7,028.781 km
Eccentricity
0.00048
Inclination
69.9183°
RAAN
279.6757°
Arg. of periapsis
321.3387°
True anomaly
38.77583°
Mean anomaly
38.7417°
Eccentric anomaly
38.75876°
Mean motion
3.68318 °/min
Orbital period
97.74 mins
BSTAR
0.0018392
Loading maneuver chart data...
Computing Atmospheric mass density...
Loading historical data...
Loading historical data...
Loading historical data...
Loading historical data...
Loading historical data...
Loading historical data...
Loading historical data...

Documentation

Showing up to 5 results
|